CALSPHERE 1 1 00900U 64063C 26248.28705065 .00000396 00000+0 39295-3 0 9991 2 00900 90.2173 73.6272 0027580 52.6772 123.1132 13.76695727 82445 CALSPHERE 2 1 00902U 64063E 26248.00226647 .00000056 00000+0 71002-4 0 9993 2 00902 90.2289 77.6753 0018601 1.9707 162.2008 13.52905591867053 LCS 1 1 01361U 65034C 26248.24712055 .00000008 00000+0 -37883-4 0 9998 2 01361 32.1463 346.9370 0011415 45.4947 314.6482 9.89310602217814 TEMPSAT 1 1 01512U 65065E 26247.88593463 .00000041 00000+0 63140-4 0 9990 2 01512 90.0040 212.6049 0070692 26.3369 0.5493 13.33597851970676 CALSPHERE 4A 1 01520U 65065H 26248.14104315 .00000041 00000+0 62284-4 0 9991 2 01520 89.8923 121.6871 0068023 237.4891 286.3455 13.36289758973383 OPS 5712 (P/L 160) 1 02826U 67053A 26248.30399978 .00004095 00000+0 56882-3 0 9998 2 02826 69.9154 201.7760 0004354 277.0853 82.9800 14.78612854 78070 OPS 5712 (P/L 153) 1 02874U 67053H 26248.25380779 -.00000016 00000+0 27054-4 0 9994 2 02874 69.9741 303.6897 0004501 91.9155 268.2466 13.96838114 17977 RIGIDSPHERE 2 (LCS 4) 1 05398U 71067E 26248.22023043 .00000298 00000+0 91115-4 0 9993 2 05398 87.6229 316.5984 0058367 329.1799 30.5977 14.37948723885387 COSMOS 2493 (SKRL-756 1) 1 39490U 13078A 26248.27720438 .00001612 00000+0 11922-3 0 9996 2 39490 82.4150 182.8160 0012331 341.5605 18.5171 15.02512167689980 COSMOS 2494 (SKRL-756 2) 1 39491U 13078B 26248.26275459 .00002377 00000+0 16409-3 0 9998 2 39491 82.4146 171.8844 0014456 297.3994 62.5761 15.05274563690852